SCP
0 0 0 0 0 0 0 0 0 0 0 0 0 0 0 0 0 0 0 0 0 0 0 0 0 0 0 0 0 0 0 0 0 0 0 0 0 0 0 0 0 0 0 0 0 0 0 0 0
0 0 0 0 0 0 0 0 0 0 0 0 0 0 0 0 0 0 0 0 0 0 0 0 0 0 0 0 0 0 0 0 0 0 0 0 0 0 0 0 0 0 0 0 0 0 0 0 0
0 0 0 0 0 0 0 0 0 0 0 0 0 0 0 0 0 0 0 0 0 0 0 0 0 0 0 0 0 0 0 0 0 0 0 0 0 0 0 0 0 0 0 0 0 0 0 0 0
0 0 0 0 0 0 0 0 0 0 0 0 0 0 0 0 0 0 0 0 0 0 0 0 0 0 0 0 0 0 0 0 0 0 0 0 0 0 0 0 0 0 0 0 0 0 0 0 0
0 0 0 0 0 0 0 0 0 0 0 0 0 0 0 0 0 0 0 0 0 0 0 0 0 0 0 0 0 0 0 0 0 0 0 0 0 0 0 0 0 0 0 0 0 0 0 0 0
0 0 0 0 0 0 0 0 0 0 0 0 0 0 0 0 0 0 0 0 0 0 0 0 0 0 0 0 0 0 0 0 0 0 0 0 0 0 0 0 0 0 0 0 0 0 0 0 0
0 0 0 0 0 0 0 0 0 0 0 0 0 0 0 0 0 0 0 0 0 0 0 0 0 0 0 0 0 0 0 0 0 0 0 0 0 0 0 0 0 0 0 0 0 0 0 0 0
0 0 0 0 0 0 0 0 0 0 0 0 0 0 0 0 1 1 0 0 0 0 0 0 0 0 0 0 0 0 0 0 0 0 0 0 0 0 0 0 0 0 0 0 0 0 0 0 0
0 0 0 0 0 0 0 0 0 0 0 0 0 1 1 1 1 1 1 0 0 0 0 0 0 0 0 0 0 0 0 0 0 0 0 0 0 0 0 0 0 0 0 0 0 0 0 0 0
0 0 0 0 0 0 0 0 0 0 0 0 0 1 1 1 1 1 1 1 0 0 0 0 0 0 0 0 0 0 0 0 0 0 0 0 0 0 0 0 0 0 0 0 0 0 0 0 0
0 0 0 0 0 0 0 0 0 0 0 0 0 0 1 2 2 1 1 1 1 0 0 0 0 0 0 0 0 0 0 0 0 0 0 0 0 0 0 0 0 0 0 0 0 0 0 0 0
0 0 0 0 0 0 0 0 0 0 0 0 0 0 1 1 1 1 1 1 1 0 0 0 0 0 0 0 0 0 0 0 0 0 0 0 0 0 0 0 0 0 0 0 0 0 0 0 0
0 0 0 0 0 0 0 0 0 0 0 0 0 0 1 1 1 1 1 1 1 0 0 0 0 0 0 0 0 0 0 0 0 0 0 0 0 0 0 0 0 0 0 0 0 0 0 0 0
0 0 0 0 0 0 0 0 0 0 0 0 0 0 0 1 1 1 1 1 1 1 0 0 0 0 0 0 0 0 0 0 0 0 0 0 0 0 0 0 0 0 0 0 0 0 0 0 0
0 0 0 0 0 0 0 0 0 0 0 0 0 0 0 0 1 1 1 1 1 1 1 0 0 0 0 0 0 0 0 0 0 0 0 0 0 0 0 0 0 0 0 0 0 0 0 0 0
0 0 0 0 0 0 0 0 0 0 0 0 1 1 0 0 1 1 1 1 1 1 1 1 0 0 0 0 0 0 0 0 0 0 0 0 0 0 0 0 0 0 0 0 0 0 0 0 0
0 0 0 0 0 0 0 0 0 0 0 0 0 0 0 0 0 1 1 1 1 1 1 1 1 0 0 0 0 0 0 0 0 0 0 0 0 0 0 0 0 0 0 0 0 0 0 0 0
0 0 0 0 0 0 0 0 0 0 0 0 0 0 0 0 0 0 0 1 1 1 1 1 1 1 0 0 0 0 0 0 0 0 0 0 0 0 0 0 0 0 0 0 0 0 0 0 0
0 0 0 0 0 0 0 0 0 0 0 0 0 0 0 0 0 0 0 0 1 1 1 1 1 1 1 0 0 0 0 0 0 0 0 0 0 0 0 0 0 0 0 0 0 0 0 0 0
0 0 0 0 0 0 0 0 0 0 0 0 0 0 0 0 0 0 0 0 1 1 1 1 1 1 1 1 1 0 0 0 0 0 0 0 0 0 0 0 0 0 0 0 0 0 0 0 0
0 0 0 0 1 1 0 0 0 0 0 0 0 0 0 0 0 0 0 0 0 1 1 1 2 2 2 1 1 1 0 0 0 0 0 0 0 0 0 0 0 0 0 0 0 0 0 0 0
0 0 0 1 1 1 1 0 0 0 0 0 0 0 0 0 0 0 0 0 0 1 1 1 2 2 2 2 1 1 1 0 0 0 0 0 0 0 0 0 0 0 0 0 0 0 0 0 0
0 0 0 0 1 1 1 0 0 0 0 0 0 0 0 0 0 0 0 0 0 1 1 1 2 2 2 2 2 1 1 1 0 0 0 0 0 0 0 0 0 0 0 0 0 0 0 0 0
0 0 0 0 0 0 0 0 0 0 0 0 0 0 0 0 0 0 0 0 0 1 1 1 1 2 2 2 2 2 1 1 1 0 0 0 0 0 0 0 0 0 0 0 0 0 0 0 0
0 1 1 0 0 0 0 0 0 0 0 0 0 0 0 0 0 0 0 0 0 1 1 1 1 1 2 2 2 2 2 1 1 1 0 0 0 0 0 0 0 0 0 0 0 0 0 0 0
0 1 1 0 0 0 0 0 0 0 0 0 0 0 0 0 0 0 0 0 0 1 1 1 1 1 1 2 2 3 2 2 1 1 1 1 0 0 0 0 0 0 0 0 0 0 0 0 0
0 0 0 0 0 0 0 0 0 0 0 0 0 0 0 0 0 0 0 0 1 1 1 1 1 1 1 2 3 3 3 3 2 1 1 1 1 0 0 0 0 0 0 0 0 0 0 0 0
0 0 0 0 0 0 0 0 0 0 0 0 0 0 0 0 0 0 0 0 1 1 1 1 1 0 1 1 3 4 3 3 2 2 1 1 1 1 1 1 1 0 0 0 0 0 0 0 0
0 0 0 0 0 0 0 0 0 0 0 0 0 0 0 0 0 0 0 0 0 0 0 0 0 0 0 1 1 2 2 2 2 1 1 1 1 1 1 1 1 1 1 1 0 0 0 0 0
0 0 0 0 0 0 0 0 0 0 0 0 0 0 0 0 0 0 0 0 0 0 0 0 0 0 0 0 0 1 1 1 1 1 1 1 1 1 1 1 1 1 1 1 1 1 0 0 0
Wind_Speed
15 9 2 4 6 4 2 3 4 2 2 1 4 9 8 4 3 4 3 11 14 13 11 12 13 14 15 14 14 13 13 13 13 13 13 13 13 13 13 13 13 13 13 13 14 13 13 12 11
9 4 4 5 5 1 4 3 3 3 5 4 5 6 6 3 2 7 6 11 15 14 11 11 13 14 15 14 13 13 13 13 13 13 13 12 12 12 12 12 12 12 12 12 12 12 11 10 10
8 2 4 4 3 5 4 3 5 2 3 4 4 5 5 5 5 6 8 14 14 12 10 11 14 15 15 14 13 13 12 12 13 12 12 12 12 12 12 12 11 11 11 11 11 11 10 9 9
4 4 5 3 3 5 5 5 5 4 2 3 5 5 2 2 6 7 14 14 14 11 10 11 14 15 15 14 13 13 12 13 13 12 12 12 12 11 11 11 11 10 10 10 10 10 9 8 7
4 4 3 1 4 4 3 5 6 6 4 3 5 5 1 2 7 14 15 14 13 10 9 11 13 14 14 14 13 12 12 13 12 12 12 11 11 11 11 10 10 9 9 9 9 9 8 7 6
4 4 2 3 5 4 3 4 4 4 4 4 6 6 2 3 10 13 13 12 12 11 10 10 12 12 12 12 12 11 12 12 11 11 11 11 11 10 10 10 9 9 9 8 8 7 6 5 4
2 2 3 4 4 4 4 3 5 5 4 5 8 7 3 4 7 10 10 11 10 10 9 8 8 9 11 11 11 10 10 10 10 10 10 10 9 9 9 8 9 9 8 8 7 6 5 4 3
3 3 3 4 4 5 3 1 3 5 4 3 6 10 8 8 8 9 9 9 9 9 9 8 7 7 7 7 10 10 10 10 10 9 9 9 9 8 8 7 8 8 8 8 7 6 5 4 3
2 2 5 5 5 5 2 0 0 1 4 2 2 6 8 12 11 11 8 7 8 9 8 8 8 7 6 6 8 9 10 10 9 8 10 8 5 5 5 6 7 8 8 8 7 7 5 4 3
3 5 8 4 3 3 2 1 1 2 3 2 3 3 9 13 13 13 12 12 12 12 10 9 9 8 7 6 5 5 5 5 5 5 6 4 4 4 5 7 8 8 8 8 8 7 5 4 2
5 7 5 4 3 2 2 2 1 5 3 5 6 7 11 11 12 12 12 12 12 12 11 10 10 9 8 5 5 4 3 4 5 6 6 4 4 3 3 3 4 5 6 4 4 4 3 3 3
4 5 4 3 2 1 2 1 1 3 5 5 8 13 12 13 14 14 13 11 10 11 11 11 11 10 9 7 6 5 4 4 4 6 6 5 3 3 3 3 4 3 3 4 3 3 4 4 5
5 4 4 4 3 3 2 3 2 5 4 1 7 10 12 13 12 10 9 8 9 11 11 11 11 11 10 8 6 7 6 6 6 5 6 6 5 5 4 4 4 4 4 4 4 4 5 5 5
4 4 5 4 4 3 4 4 2 7 3 4 8 10 11 12 12 9 9 10 11 12 12 11 11 11 10 9 8 7 7 6 6 6 7 8 6 6 5 5 5 5 5 5 5 6 5 5 4
2 3 5 5 4 3 2 7 8 8 3 5 8 9 10 11 10 12 13 12 13 11 11 12 12 11 11 10 9 7 6 6 6 6 7 8 7 7 6 5 5 5 5 5 5 5 4 4 5
1 3 6 6 5 4 5 12 8 7 6 8 8 8 9 10 11 12 11 11 11 10 11 12 10 11 11 10 8 6 6 7 6 6 6 8 8 7 6 5 5 5 4 4 4 4 4 4 4
3 6 7 5 5 4 7 9 7 5 7 9 8 8 9 9 9 11 11 11 11 12 11 12 11 12 11 10 7 6 6 6 6 6 6 7 9 8 7 6 5 5 5 5 5 4 4 4 5
7 5 5 8 4 6 8 9 7 5 6 9 8 8 9 10 11 10 11 11 10 10 10 11 11 11 9 7 5 5 5 6 5 6 7 8 8 9 8 6 6 6 5 5 4 5 5 4 4
4 4 5 5 3 5 10 12 11 8 7 8 8 8 9 11 10 7 8 9 8 8 10 11 11 10 8 7 7 7 8 7 6 6 7 8 8 8 8 6 6 6 6 7 7 5 6 5 3
6 7 6 4 3 4 7 12 10 10 10 10 10 10 10 9 8 7 7 7 9 10 10 10 11 10 10 8 8 6 5 5 5 4 6 8 8 8 7 8 7 7 7 7 7 6 4 4 4
9 9 8 5 2 2 3 9 10 9 8 9 10 10 9 11 11 8 7 8 8 9 10 9 11 11 11 9 5 3 3 2 4 5 6 7 8 8 8 8 7 7 7 7 8 8 8 6 5
10 8 7 5 3 4 4 7 7 8 9 11 11 10 10 10 9 8 7 7 8 8 8 8 8 9 9 9 7 8 8 8 8 6 5 5 7 7 8 8 8 7 6 7 7 7 7 7 6
5 3 5 6 5 5 4 6 8 5 10 11 10 10 10 9 8 7 7 7 6 6 6 6 6 7 7 8 10 10 8 7 5 4 4 5 5 6 7 8 8 8 7 7 7 7 7 7 7
3 0 1 2 4 10 10 8 8 6 9 7 8 9 9 8 7 6 4 4 4 3 4 4 5 5 5 7 8 9 9 8 5 6 6 5 5 5 7 7 8 8 7 8 8 7 8 7 7
5 4 2 4 7 9 7 9 10 7 7 8 8 8 7 6 5 4 4 4 3 3 3 4 5 4 4 5 6 7 8 8 8 7 7 6 5 5 7 7 8 7 8 7 7 7 7 8 8
8 8 7 6 6 4 5 10 8 7 6 6 6 5 4 3 3 3 3 4 4 4 4 4 5 5 4 5 5 6 6 5 5 6 5 5 4 5 5 6 7 7 6 6 6 6 7 6 7
7 8 5 2 1 2 6 6 8 3 3 3 2 2 2 2 2 2 2 1 2 3 3 4 4 3 3 3 4 4 4 5 4 4 4 3 3 3 3 4 5 5 6 6 6 6 6 6 7
5 5 4 5 5 6 6 6 5 3 3 2 2 2 2 2 2 1 1 1 1 2 2 2 3 3 2 2 2 2 3 3 4 3 3 3 3 3 3 3 4 5 5 5 5 5 5 6 6
5 5 5 4 4 5 5 7 5 5 3 2 3 3 2 2 2 2 2 1 1 0 1 2 2 2 1 1 1 1 1 2 2 3 3 3 3 3 4 4 4 4 4 4 4 4 3 4 4
6 7 7 5 5 5 5 8 3 3 2 1 3 3 3 3 3 2 1 1 1 0 1 0 1 1 1 1 1 1 0 0 1 2 2 2 3 3 3 3 4 4 4 4 4 4 4 4 4
Wind_Direction
325 324 16 54 53 51 255 243 179 153 110 114 99 102 107 111 149 159 130 139 136 145 150 149 147 145 143 139 138 137 136 133 128 125 124 122 120 118 115 110 109 107 106 104 101 98 95 93 91
319 333 41 56 85 95 263 233 166 178 164 135 96 95 90 82 97 117 126 145 141 145 149 150 147 146 145 143 143 141 139 137 133 131 129 126 125 123 121 116 114 112 110 109 106 104 100 96 92
323 29 70 71 131 190 222 210 170 175 159 115 83 76 115 145 140 145 153 145 140 144 148 149 149 149 149 148 147 146 144 141 139 137 134 130 128 124 123 121 117 115 115 114 112 111 106 100 93
1 27 54 83 232 229 206 208 172 137 107 88 104 81 86 159 163 146 142 143 140 144 147 152 152 153 152 152 152 151 149 146 142 141 139 135 132 130 128 126 122 120 119 119 117 117 112 104 94
42 64 55 297 250 257 232 196 172 146 155 128 111 111 82 356 128 133 143 145 144 146 149 156 155 156 156 156 157 156 154 151 148 146 144 141 139 138 136 132 131 128 127 127 126 125 121 112 99
37 65 113 231 248 262 252 209 162 148 159 135 117 118 145 133 133 143 146 145 146 148 151 157 157 157 158 159 160 159 158 156 155 153 150 149 147 147 146 143 140 141 141 138 134 135 133 128 115
106 114 197 218 241 256 239 208 162 156 163 172 140 123 150 171 156 146 143 140 143 148 152 155 158 161 162 162 162 162 161 160 159 157 154 153 152 153 152 152 153 154 155 152 150 147 149 154 146
140 127 213 222 221 243 254 191 175 150 176 153 132 145 177 192 160 137 134 137 143 150 156 159 160 160 162 164 167 168 167 166 163 160 158 159 161 160 161 162 166 166 166 165 165 165 170 178 185
117 133 214 215 210 237 270 283 305 135 110 68 88 170 177 152 142 134 134 141 154 162 166 166 167 167 165 167 173 172 172 174 169 167 168 165 166 167 169 175 177 177 176 177 180 183 190 196 218
144 196 219 215 211 231 274 255 209 86 81 67 41 49 129 143 151 156 162 167 171 175 176 174 175 175 173 178 170 173 176 174 173 170 171 171 172 180 183 185 188 187 187 190 196 200 203 207 235
185 208 223 238 244 240 262 282 291 134 180 188 172 159 152 156 163 171 176 176 179 177 178 179 179 179 179 178 171 175 175 175 179 181 181 178 178 185 190 185 193 196 196 199 209 213 213 215 224
216 237 224 239 257 234 228 250 286 196 219 214 175 161 164 171 178 183 185 184 179 179 185 183 181 180 183 180 179 180 181 184 188 192 189 182 184 192 193 194 194 193 194 196 206 214 222 228 231
231 247 252 251 257 244 246 242 249 251 259 169 146 160 175 185 190 193 191 185 181 185 188 187 184 184 183 182 186 186 189 191 192 193 196 191 191 196 197 199 198 200 197 199 206 216 225 232 237
246 256 267 269 253 237 225 254 240 250 232 153 166 183 192 194 194 191 192 194 192 193 193 188 188 187 183 186 190 191 191 192 192 197 199 196 197 198 197 200 203 206 205 204 207 213 221 229 231
259 268 279 251 228 225 193 257 231 237 223 197 196 201 204 207 201 200 199 198 196 195 193 191 191 189 189 191 193 192 191 190 195 199 199 197 197 198 198 200 205 209 206 206 210 219 222 229 232
195 213 239 243 203 204 184 243 243 232 219 228 223 217 218 217 212 211 207 204 201 194 192 194 192 190 193 194 193 192 191 191 197 198 200 202 202 200 200 204 209 204 200 201 206 213 221 232 235
199 216 224 243 210 189 200 240 254 239 213 230 230 226 227 228 225 219 213 208 203 198 194 194 194 194 196 195 194 193 192 196 199 199 203 206 206 203 204 210 210 199 202 205 208 212 212 228 238
197 210 216 218 217 199 222 242 260 253 224 232 236 233 231 231 230 221 214 209 204 199 196 196 197 198 195 193 191 194 201 205 202 204 207 205 207 206 206 211 209 201 206 212 210 216 217 222 230
198 212 231 231 227 209 235 244 248 250 243 242 242 239 238 237 238 230 217 208 202 199 197 196 195 197 188 188 194 199 209 209 208 208 207 206 207 206 207 212 209 206 213 216 213 214 221 227 211
227 234 240 269 241 221 247 256 251 242 235 230 233 235 237 242 248 236 221 208 202 202 201 200 199 195 193 197 198 200 200 204 207 206 208 209 208 208 208 211 213 211 215 218 216 212 217 220 193
233 225 223 237 310 270 268 272 250 250 240 240 237 233 231 228 233 233 223 213 206 206 204 201 200 196 196 196 184 178 179 191 202 211 216 216 211 210 212 214 214 214 215 222 221 215 217 226 215
238 222 220 220 216 243 206 265 256 241 246 240 239 237 237 239 235 228 219 215 207 208 204 202 199 196 195 188 185 187 196 208 214 211 214 214 211 213 215 217 216 217 219 223 224 220 220 220 228
233 217 219 225 220 243 223 247 268 238 240 242 239 238 238 238 234 232 223 214 210 203 197 197 193 195 196 191 193 195 205 214 212 199 203 211 213 216 218 218 219 220 222 225 225 222 220 221 227
204 204 250 228 213 240 218 222 262 219 222 235 238 237 236 237 236 236 232 208 209 202 191 186 181 191 192 190 195 198 205 208 203 203 208 213 215 218 221 220 220 221 223 225 227 226 221 223 225
179 171 198 211 218 239 195 215 248 226 225 222 230 235 239 235 226 222 216 208 203 194 186 178 174 187 192 188 194 200 205 206 209 212 212 213 217 219 221 219 223 224 225 224 223 224 227 225 225
196 193 197 204 213 250 203 225 249 236 235 237 233 230 241 239 234 233 224 210 205 198 188 181 180 189 192 192 199 203 202 204 211 213 211 216 223 224 221 217 219 221 223 224 223 224 228 229 229
185 209 205 205 247 244 240 265 293 282 265 268 280 297 278 267 259 246 244 207 189 186 188 180 179 189 197 198 195 199 202 202 205 207 207 215 224 226 217 211 212 217 219 221 221 225 228 227 231
193 172 164 192 204 234 247 240 240 253 249 280 289 269 279 294 314 324 316 288 229 192 179 157 160 172 183 188 197 192 201 203 203 196 200 208 216 214 209 214 213 213 216 218 219 225 228 227 232
182 190 194 198 202 206 243 255 220 208 216 230 267 291 303 299 302 304 296 293 254 100 152 157 155 158 153 167 182 188 204 205 205 205 210 210 212 212 210 211 214 212 213 213 215 221 219 223 232
199 198 192 206 228 217 239 259 247 216 234 259 285 298 302 306 306 308 295 309 328 60 38 148 159 157 175 190 184 174 191 204 207 225 229 215 211 213 212 207 208 213 210 209 212 217 215 218 227